Nashua, NH

1:14 PM EST on February 07, 2016 (GMT -0500)
Boire

Weather History for KASH - February, 2013

Change the Weather History Date:

Thursday, February 28, 2013

  Actual Average Record
Temperature  
Mean Temperature 38 °F -  
Max Temperature 43 °F 40 °F 57 °F (1983)
Min Temperature 32 °F 18 °F -10 °F (1964)
Degree Days  
Heating Degree Days 28    
Moisture  
Dew Point 32 °F    
Average Humidity 85    
Maximum Humidity 93    
Minimum Humidity 70    
Precipitation  
Precipitation 0.01 in - - ()
Sea Level Pressure  
Sea Level Pressure 30.01 in    
Wind  
Wind Speed 7 mph (NW)    
Max Wind Speed 13 mph    
Max Gust Speed -    
Visibility 10 miles    
Events      
Averages and records for this station are not official NWS values.
T = Trace of Precipitation, MM = Missing Value Source: NWS Daily Summary

Daily Weather History Graph

Daily Weather History Graph

Search for Another Location

Airport or City:

Trip Planner

Search our weather history database for the weather conditions in past years. The results will help you decide how hot, cold, wet, or windy it might be!

Date:

Astronomy

Feb. 28, 2013 Rise Set
Actual Time 6:23 AM EST 5:34 PM EST
Civil Twilight 5:54 AM EST 6:03 PM EST
Nautical Twilight 5:21 AM EST 6:35 PM EST
Astronomical Twilight 4:49 AM EST 7:08 PM EST
Moon 9:04 PM EST (2/28) 7:25 AM EST (2/28)
Length of Visible Light 12h 08m
Length of Day
11h 11m
Waning Gibbous, 91% of the Moon is Illuminated
Feb 28
Waning Gibbous
Mar 4
Last Quarter
Mar 11
New
Mar 19
First Quarter
Mar 27
Full

Hourly Weather History & Observations

Time (EST) Temp. Windchill Dew Point Humidity Pressure Visibility Wind Dir Wind Speed Gust Speed Precip Events Conditions
12:08 AM 33.8 °F 24.8 °F 32.0 °F 93% 29.60 in 2.5 mi NNW 12.7 mph - 0.01 in   Overcast
12:22 AM 33.8 °F 26.4 °F 32.0 °F 93% 29.59 in 3.0 mi NNW 9.2 mph - 0.01 in   Overcast
12:51 AM 34.0 °F 26.6 °F 32.0 °F 92% 30.34 in 9.0 mi NNW 9.2 mph - 0.01 in   Overcast
1:51 AM 32.9 °F 26.7 °F 31.1 °F 93% 30.33 in 10.0 mi NNW 6.9 mph - N/A   Overcast
3:51 AM 32.9 °F 27.5 °F 31.1 °F 93% 30.34 in 10.0 mi NW 5.8 mph - N/A   Overcast
5:18 AM 33.8 °F 29.6 °F 30.2 °F 87% 29.61 in 10.0 mi West 4.6 mph - N/A   Overcast
5:51 AM 32.9 °F 29.8 °F 31.1 °F 93% 30.37 in 10.0 mi West 3.5 mph - N/A   Overcast
6:13 AM 33.8 °F 29.6 °F 30.2 °F 87% 29.62 in 10.0 mi WNW 4.6 mph - N/A   Overcast
6:51 AM 32.9 °F 28.5 °F 30.0 °F 89% 30.38 in 10.0 mi WNW 4.6 mph - N/A   Overcast
6:59 AM 33.8 °F 30.8 °F 30.2 °F 87% 29.62 in 10.0 mi WNW 3.5 mph - N/A   Mostly Cloudy
7:12 AM 33.8 °F 29.6 °F 30.2 °F 87% 29.62 in 10.0 mi NNW 4.6 mph - N/A   Scattered Clouds
7:51 AM 34.0 °F 29.8 °F 31.1 °F 89% 30.37 in 10.0 mi WNW 4.6 mph - N/A   Partly Cloudy
10:51 AM 37.9 °F 35.5 °F 32.0 °F 79% 30.37 in 10.0 mi Variable 3.5 mph - N/A   Mostly Cloudy
10:58 AM 37.4 °F 34.9 °F 32.0 °F 81% 29.62 in 10.0 mi NW 3.5 mph - N/A   Scattered Clouds
11:51 AM 39.9 °F 37.8 °F 32.9 °F 76% 30.35 in 10.0 mi NNW 3.5 mph - N/A   Scattered Clouds
12:51 PM 39.9 °F 36.7 °F 32.9 °F 76% 30.32 in 10.0 mi North 4.6 mph - N/A   Mostly Cloudy
1:51 PM 41.9 °F 37.5 °F 32.9 °F 70% 30.31 in 10.0 mi NW 6.9 mph - N/A   Overcast
2:26 PM 42.8 °F 38.6 °F 33.8 °F 70% 29.56 in 10.0 mi NW 6.9 mph - N/A   Overcast
2:33 PM 42.8 °F 38.6 °F 33.8 °F 70% 29.56 in 10.0 mi NW 6.9 mph - N/A   Overcast
3:51 PM 43.0 °F 39.5 °F 34.0 °F 71% 30.29 in 10.0 mi NW 5.8 mph - N/A   Scattered Clouds
4:51 PM 41.9 °F 40.0 °F 34.0 °F 73% 30.29 in 10.0 mi West 3.5 mph - N/A   Scattered Clouds
5:51 PM 39.9 °F 37.8 °F 34.0 °F 79% 30.30 in 10.0 mi West 3.5 mph - N/A   Overcast
6:51 PM 37.9 °F 35.5 °F 32.9 °F 82% 30.30 in 10.0 mi West 3.5 mph - N/A   Scattered Clouds
7:51 PM 36.9 °F 33.1 °F 32.9 °F 86% 30.30 in 10.0 mi WNW 4.6 mph - N/A   Overcast
8:51 PM 36.9 °F 33.1 °F 32.9 °F 86% 30.30 in 10.0 mi NW 4.6 mph - N/A   Overcast
9:13 PM 37.4 °F 34.9 °F 33.8 °F 87% 29.55 in 10.0 mi NW 3.5 mph - N/A   Overcast
9:40 PM 35.6 °F 32.8 °F 33.8 °F 93% 29.55 in 10.0 mi WNW 3.5 mph - N/A   Overcast
9:51 PM 36.0 °F 33.3 °F 32.0 °F 86% 30.30 in 10.0 mi NW 3.5 mph - N/A   Overcast
10:06 PM 35.6 °F 31.7 °F 33.8 °F 93% 29.55 in 10.0 mi WNW 4.6 mph - N/A   Overcast
10:51 PM 36.0 °F 33.3 °F 32.9 °F 89% 30.29 in 10.0 mi NW 3.5 mph - N/A   Overcast
11:12 PM 37.4 °F 34.9 °F 33.8 °F 87% 29.54 in 10.0 mi NW 3.5 mph - N/A   Overcast
11:20 PM 37.4 °F 33.8 °F 33.8 °F 87% 29.54 in 10.0 mi WNW 4.6 mph - N/A   Overcast
11:51 PM 36.0 °F 31.1 °F 32.9 °F 89% 30.28 in 10.0 mi NW 5.8 mph - N/A   Overcast